sat.trackr.live / text

‹ back to catalog

BEIDOU-3 M23 (C45)

NORAD 44543 · 2019-061B

PAYLOAD ACTIVE UNKNOWN

§ Identity

Operator
Country
PRC
Launch date
2019-09-22
Launch site
XICLF
Launch vehicle
Mass (kg)
RCS (m²)

Purposes: earth_obs, nav

External: N2YO · Heavens-Above · Gunter

§ Orbital elements

Epoch: 2026-09-20T02:38:54.778272Z

Period
773.25 min
Inclination
54.3919°
Eccentricity
0.0006091
Mean motion
1.86227918 rev/d
Perigee alt
21,511.4 km
Apogee alt
21,545.4 km
Semi-major
27,906.5 km
B*
0.0000e+0
RAAN
179.4968°
Arg perigee
4.2991°
Mean anomaly
150.6914°
Rev number
4,756

§ Raw data

BEIDOU-3 M23 (C45)1 44543U 19061B   26263.11035623 -.00000028  00000+0  00000+0 0  99962 44543  54.3919 179.4968 0006091   4.2991 150.6914  1.86227918 47560

JSON: /api/v1/satellites/44543 · /tle

For live sub-satellite position, see the globe view (requires WebGL).

§ Visibility from observer

Set your observer location to see the next 7 days of passes ≥ 10°. The values pass through the URL so the page stays shareable.

No JS? Fill the form by hand. The geolocation button needs JavaScript.